Year,Month,Day,Hour,Minute,Value (Times are PST for temperature in C)
2008,03,28,00,00,5.10
2008,03,28,00,01,5.10
2008,03,28,00,02,5.10
2008,03,28,00,03,5.10
2008,03,28,00,04,5.10
2008,03,28,00,05,5.10
2008,03,28,00,06,5.10
2008,03,28,00,07,5.10
2008,03,28,00,08,5.10
2008,03,28,00,09,5.10
2008,03,28,00,10,5.10
2008,03,28,00,11,5.10
2008,03,28,00,12,5.00
2008,03,28,00,13,5.10
2008,03,28,00,14,5.10
2008,03,28,00,15,5.00
2008,03,28,00,16,4.90
2008,03,28,00,17,4.90
2008,03,28,00,18,4.90
2008,03,28,00,19,4.90
2008,03,28,00,20,4.90
2008,03,28,00,21,4.90
2008,03,28,00,22,4.90
2008,03,28,00,23,4.90
2008,03,28,00,24,4.90
2008,03,28,00,25,4.90
2008,03,28,00,26,4.90
2008,03,28,00,27,4.90
2008,03,28,00,28,4.90
2008,03,28,00,29,4.90
2008,03,28,00,30,4.80
2008,03,28,00,31,4.80
2008,03,28,00,32,4.80
2008,03,28,00,33,4.80
2008,03,28,00,34,4.80
2008,03,28,00,35,4.80
2008,03,28,00,36,4.80
2008,03,28,00,37,4.90
2008,03,28,00,38,4.90
2008,03,28,00,39,4.90
2008,03,28,00,40,4.90
2008,03,28,00,41,4.90
2008,03,28,00,42,4.90
2008,03,28,00,43,4.90
2008,03,28,00,44,4.90
2008,03,28,00,45,4.90
2008,03,28,00,46,4.90
2008,03,28,00,47,4.80
2008,03,28,00,48,4.80
2008,03,28,00,49,4.80
2008,03,28,00,50,4.80
2008,03,28,00,51,4.70
2008,03,28,00,52,4.70
2008,03,28,00,53,4.70
2008,03,28,00,54,4.70
2008,03,28,00,55,4.70
2008,03,28,00,56,4.70
2008,03,28,00,57,4.70
2008,03,28,00,58,4.70
2008,03,28,00,59,4.70
2008,03,28,01,00,4.70
2008,03,28,01,01,4.70
2008,03,28,01,02,4.70
2008,03,28,01,03,4.70
2008,03,28,01,04,4.70
2008,03,28,01,05,4.80
2008,03,28,01,06,4.80
2008,03,28,01,07,4.80
2008,03,28,01,08,4.70
2008,03,28,01,09,4.70
2008,03,28,01,10,4.70
2008,03,28,01,11,4.60
2008,03,28,01,12,4.60
2008,03,28,01,13,4.60
2008,03,28,01,14,4.60
2008,03,28,01,15,4.60
2008,03,28,01,16,4.60
2008,03,28,01,17,4.60
2008,03,28,01,18,4.60
2008,03,28,01,19,4.60
2008,03,28,01,20,4.60
2008,03,28,01,21,4.60
2008,03,28,01,22,4.60
2008,03,28,01,23,4.60
2008,03,28,01,24,4.60
2008,03,28,01,25,4.60
2008,03,28,01,26,4.60
2008,03,28,01,27,4.60
2008,03,28,01,28,4.60
2008,03,28,01,29,4.60
2008,03,28,01,30,4.60
2008,03,28,01,31,4.60
2008,03,28,01,32,4.60
2008,03,28,01,33,4.60
2008,03,28,01,34,4.60
2008,03,28,01,35,4.60
2008,03,28,01,36,4.60
2008,03,28,01,37,4.60
2008,03,28,01,38,4.60
2008,03,28,01,39,4.60
2008,03,28,01,40,4.60
2008,03,28,01,41,4.60
2008,03,28,01,42,4.60
2008,03,28,01,43,4.60
2008,03,28,01,44,4.70
2008,03,28,01,45,4.70
2008,03,28,01,46,4.60
2008,03,28,01,47,4.60
2008,03,28,01,48,4.60
2008,03,28,01,49,4.60
2008,03,28,01,50,4.60
2008,03,28,01,51,4.60
2008,03,28,01,52,4.60
2008,03,28,01,53,4.60
2008,03,28,01,54,4.60
2008,03,28,01,55,4.60
2008,03,28,01,56,4.60
2008,03,28,01,57,4.60
2008,03,28,01,58,4.60
2008,03,28,01,59,4.60
2008,03,28,02,00,4.60
2008,03,28,02,01,4.60
2008,03,28,02,02,4.60
2008,03,28,02,03,4.60
2008,03,28,02,04,4.60
2008,03,28,02,05,4.60
2008,03,28,02,06,4.60
2008,03,28,02,07,4.60
2008,03,28,02,08,4.60
2008,03,28,02,09,4.60
2008,03,28,02,10,4.60
2008,03,28,02,11,4.60
2008,03,28,02,12,4.60
2008,03,28,02,13,4.70
2008,03,28,02,14,4.70
2008,03,28,02,15,4.70
2008,03,28,02,16,4.60
2008,03,28,02,17,4.60
2008,03,28,02,18,4.60
2008,03,28,02,19,4.60
2008,03,28,02,20,4.60
2008,03,28,02,21,4.60
2008,03,28,02,22,4.60
2008,03,28,02,23,4.60
2008,03,28,02,24,4.60
2008,03,28,02,25,4.60
2008,03,28,02,26,4.60
2008,03,28,02,27,4.60
2008,03,28,02,28,4.70
2008,03,28,02,29,4.70
2008,03,28,02,30,4.60
2008,03,28,02,31,4.60
2008,03,28,02,32,4.60
2008,03,28,02,33,4.60
2008,03,28,02,34,4.60
2008,03,28,02,35,4.50
2008,03,28,02,36,4.50
2008,03,28,02,37,4.50
2008,03,28,02,38,4.50
2008,03,28,02,39,4.50
2008,03,28,02,40,4.50
2008,03,28,02,41,4.40
2008,03,28,02,42,4.40
2008,03,28,02,43,4.50
2008,03,28,02,44,4.50
2008,03,28,02,45,4.50
2008,03,28,02,46,4.50
2008,03,28,02,47,4.50
2008,03,28,02,48,4.50
2008,03,28,02,49,4.50
2008,03,28,02,50,4.50
2008,03,28,02,51,4.50
2008,03,28,02,52,4.50
2008,03,28,02,53,4.50
2008,03,28,02,54,4.60
2008,03,28,02,55,4.60
2008,03,28,02,56,4.60
2008,03,28,02,57,4.60
2008,03,28,02,58,4.60
2008,03,28,02,59,4.60
2008,03,28,03,00,4.60
2008,03,28,03,01,4.60
2008,03,28,03,02,4.60
2008,03,28,03,03,4.60
2008,03,28,03,04,4.60
2008,03,28,03,05,4.60
2008,03,28,03,06,4.60
2008,03,28,03,07,4.60
2008,03,28,03,08,4.60
2008,03,28,03,09,4.60
2008,03,28,03,10,4.60
2008,03,28,03,11,4.60
2008,03,28,03,12,4.60
2008,03,28,03,13,4.60
2008,03,28,03,14,4.60
2008,03,28,03,15,4.60
2008,03,28,03,16,4.60
2008,03,28,03,17,4.60
2008,03,28,03,18,4.60
2008,03,28,03,19,4.60
2008,03,28,03,20,4.60
2008,03,28,03,21,4.60
2008,03,28,03,22,4.60
2008,03,28,03,23,4.60
2008,03,28,03,24,4.60
2008,03,28,03,25,4.60
2008,03,28,03,26,4.60
2008,03,28,03,27,4.60
2008,03,28,03,28,4.60
2008,03,28,03,29,4.60
2008,03,28,03,30,4.60
2008,03,28,03,31,4.60
2008,03,28,03,32,4.60
2008,03,28,03,33,4.60
2008,03,28,03,34,4.60
2008,03,28,03,35,4.60
2008,03,28,03,36,4.60
2008,03,28,03,37,4.50
2008,03,28,03,38,4.50
2008,03,28,03,39,4.50
2008,03,28,03,40,4.50
2008,03,28,03,41,4.50
2008,03,28,03,42,4.50
2008,03,28,03,43,4.50
2008,03,28,03,44,4.50
2008,03,28,03,45,4.50
2008,03,28,03,46,4.50
2008,03,28,03,47,4.50
2008,03,28,03,48,4.50
2008,03,28,03,49,4.60
2008,03,28,03,50,4.60
2008,03,28,03,51,4.60
2008,03,28,03,52,4.60
2008,03,28,03,53,4.60
2008,03,28,03,54,4.60
2008,03,28,03,55,4.60
2008,03,28,03,56,4.60
2008,03,28,03,57,4.60
2008,03,28,03,58,4.60
2008,03,28,03,59,4.60
2008,03,28,04,00,4.60
2008,03,28,04,01,4.50
2008,03,28,04,02,4.50
2008,03,28,04,03,4.50
2008,03,28,04,04,4.50
2008,03,28,04,05,4.50
2008,03,28,04,06,4.50
2008,03,28,04,07,4.50
2008,03,28,04,08,4.50
2008,03,28,04,09,4.50
2008,03,28,04,10,4.50
2008,03,28,04,11,4.40
2008,03,28,04,12,4.40
2008,03,28,04,13,4.40
2008,03,28,04,14,4.40
2008,03,28,04,15,4.40
2008,03,28,04,16,4.40
2008,03,28,04,17,4.40
2008,03,28,04,18,4.40
2008,03,28,04,19,4.40
2008,03,28,04,20,4.40
2008,03,28,04,21,4.40
2008,03,28,04,22,4.40
2008,03,28,04,23,4.40
2008,03,28,04,24,4.40
2008,03,28,04,25,4.40
2008,03,28,04,26,4.40
2008,03,28,04,27,4.40
2008,03,28,04,28,4.40
2008,03,28,04,29,4.40
2008,03,28,04,30,4.40
2008,03,28,04,31,4.40
2008,03,28,04,32,4.40
2008,03,28,04,33,4.30
2008,03,28,04,34,4.30
2008,03,28,04,35,4.20
2008,03,28,04,36,4.20
2008,03,28,04,37,4.20
2008,03,28,04,38,4.20
2008,03,28,04,39,4.20
2008,03,28,04,40,4.10
2008,03,28,04,41,4.10
2008,03,28,04,42,4.10
2008,03,28,04,43,4.10
2008,03,28,04,44,4.10
2008,03,28,04,45,4.10
2008,03,28,04,46,4.00
2008,03,28,04,47,4.10
2008,03,28,04,48,4.10
2008,03,28,04,49,4.10
2008,03,28,04,50,4.10
2008,03,28,04,51,4.10
2008,03,28,04,52,4.10
2008,03,28,04,53,4.20
2008,03,28,04,54,4.20
2008,03,28,04,55,4.20
2008,03,28,04,56,4.20
2008,03,28,04,57,4.20
2008,03,28,04,58,4.20
2008,03,28,04,59,4.20
2008,03,28,05,00,4.20
2008,03,28,05,01,4.20
2008,03,28,05,02,4.20
2008,03,28,05,03,4.20
2008,03,28,05,04,4.20
2008,03,28,05,05,4.20
2008,03,28,05,06,4.20
2008,03,28,05,07,4.20
2008,03,28,05,08,4.20
2008,03,28,05,09,4.20
2008,03,28,05,10,4.20
2008,03,28,05,11,4.20
2008,03,28,05,12,4.20
2008,03,28,05,13,4.20
2008,03,28,05,14,4.20
2008,03,28,05,15,4.30
2008,03,28,05,16,4.30
2008,03,28,05,17,4.30
2008,03,28,05,18,4.30
2008,03,28,05,19,4.30
2008,03,28,05,20,4.30
2008,03,28,05,21,4.20
2008,03,28,05,22,4.20
2008,03,28,05,23,4.20
2008,03,28,05,24,4.20
2008,03,28,05,25,4.30
2008,03,28,05,26,4.30
2008,03,28,05,27,4.30
2008,03,28,05,28,4.30
2008,03,28,05,29,4.30
2008,03,28,05,30,4.30
2008,03,28,05,31,4.30
2008,03,28,05,32,4.30
2008,03,28,05,33,4.30
2008,03,28,05,34,4.30
2008,03,28,05,35,4.40
2008,03,28,05,36,4.40
2008,03,28,05,37,4.40
2008,03,28,05,38,4.40
2008,03,28,05,39,4.30
2008,03,28,05,40,4.30
2008,03,28,05,41,4.30
2008,03,28,05,42,4.30
2008,03,28,05,43,4.30
2008,03,28,05,44,4.10
2008,03,28,05,45,4.00
2008,03,28,05,46,3.90
2008,03,28,05,47,3.80
2008,03,28,05,48,3.60
2008,03,28,05,49,3.60
2008,03,28,05,50,3.60
2008,03,28,05,51,3.50
2008,03,28,05,52,3.50
2008,03,28,05,53,3.40
2008,03,28,05,54,3.40
2008,03,28,05,55,3.40
2008,03,28,05,56,3.40
2008,03,28,05,57,3.40
2008,03,28,05,58,3.30
2008,03,28,05,59,3.30
2008,03,28,06,00,3.30
2008,03,28,06,01,3.30
2008,03,28,06,02,3.30
2008,03,28,06,03,3.30
2008,03,28,06,04,3.30
2008,03,28,06,05,3.30
2008,03,28,06,06,3.30
2008,03,28,06,07,3.30
2008,03,28,06,08,3.40
2008,03,28,06,09,3.50
2008,03,28,06,10,3.60
2008,03,28,06,11,3.70
2008,03,28,06,12,3.80
2008,03,28,06,13,3.90
2008,03,28,06,14,4.00
2008,03,28,06,15,4.00
2008,03,28,06,16,4.10
2008,03,28,06,17,4.10
2008,03,28,06,18,4.10
2008,03,28,06,19,4.10
2008,03,28,06,20,4.10
2008,03,28,06,21,4.10
2008,03,28,06,22,4.10
2008,03,28,06,23,4.10
2008,03,28,06,24,4.00
2008,03,28,06,25,4.00
2008,03,28,06,26,4.00
2008,03,28,06,27,4.00
2008,03,28,06,28,4.00
2008,03,28,06,29,4.00
2008,03,28,06,30,3.90
2008,03,28,06,31,3.90
2008,03,28,06,32,3.80
2008,03,28,06,33,3.80
2008,03,28,06,34,3.80
2008,03,28,06,35,3.70
2008,03,28,06,36,3.60
2008,03,28,06,37,3.60
2008,03,28,06,38,3.50
2008,03,28,06,39,3.50
2008,03,28,06,40,3.40
2008,03,28,06,41,3.30
2008,03,28,06,42,3.30
2008,03,28,06,43,3.30
2008,03,28,06,44,3.20
2008,03,28,06,45,3.20
2008,03,28,06,46,3.20
2008,03,28,06,47,3.10
2008,03,28,06,48,3.10
2008,03,28,06,49,3.10
2008,03,28,06,50,3.10
2008,03,28,06,51,3.10
2008,03,28,06,52,3.10
2008,03,28,06,53,3.10
2008,03,28,06,54,3.10
2008,03,28,06,55,3.10
2008,03,28,06,56,3.10
2008,03,28,06,57,3.10
2008,03,28,06,58,3.10
2008,03,28,06,59,3.10
2008,03,28,07,00,3.20
2008,03,28,07,01,3.20
2008,03,28,07,02,3.20
2008,03,28,07,03,3.30
2008,03,28,07,04,3.30
2008,03,28,07,05,3.30
2008,03,28,07,06,3.30
2008,03,28,07,07,3.30
2008,03,28,07,08,3.40
2008,03,28,07,09,3.40
2008,03,28,07,10,3.40
2008,03,28,07,11,3.40
2008,03,28,07,12,3.40
2008,03,28,07,13,3.50
2008,03,28,07,14,3.50
2008,03,28,07,15,3.50
2008,03,28,07,16,3.50
2008,03,28,07,17,3.60
2008,03,28,07,18,3.60
2008,03,28,07,19,3.60
2008,03,28,07,20,3.60
2008,03,28,07,21,3.60
2008,03,28,07,22,3.50
2008,03,28,07,23,3.50
2008,03,28,07,24,3.50
2008,03,28,07,25,3.50
2008,03,28,07,26,3.50
2008,03,28,07,27,3.60
2008,03,28,07,28,3.60
2008,03,28,07,29,3.60
2008,03,28,07,30,3.60
2008,03,28,07,31,3.50
2008,03,28,07,32,3.50
2008,03,28,07,33,3.50
2008,03,28,07,34,3.50
2008,03,28,07,35,3.40
2008,03,28,07,36,3.40
2008,03,28,07,37,3.40
2008,03,28,07,38,3.40
2008,03,28,07,39,3.40
2008,03,28,07,40,3.30
2008,03,28,07,41,3.30
2008,03,28,07,42,3.30
2008,03,28,07,43,3.30
2008,03,28,07,44,3.30
2008,03,28,07,45,3.30
2008,03,28,07,46,3.30
2008,03,28,07,47,3.30
2008,03,28,07,48,3.30
2008,03,28,07,49,3.30
2008,03,28,07,50,3.30
2008,03,28,07,51,3.30
2008,03,28,07,52,3.20
2008,03,28,07,53,3.20
2008,03,28,07,54,3.20
2008,03,28,07,55,3.10
2008,03,28,07,56,3.10
2008,03,28,07,57,3.10
2008,03,28,07,58,3.10
2008,03,28,07,59,3.10
2008,03,28,08,00,3.00
2008,03,28,08,01,2.90
2008,03,28,08,02,2.90
2008,03,28,08,03,2.90
2008,03,28,08,04,2.90
2008,03,28,08,05,2.90
2008,03,28,08,06,2.90
2008,03,28,08,07,2.90
2008,03,28,08,08,2.90
2008,03,28,08,09,2.90
2008,03,28,08,10,2.90
2008,03,28,08,11,2.90
2008,03,28,08,12,2.90
2008,03,28,08,13,2.90
2008,03,28,08,14,2.90
2008,03,28,08,15,2.90
2008,03,28,08,16,2.90
2008,03,28,08,17,2.90
2008,03,28,08,18,2.90
2008,03,28,08,19,2.90
2008,03,28,08,20,2.90
2008,03,28,08,21,2.90
2008,03,28,08,22,2.90
2008,03,28,08,23,2.90
2008,03,28,08,24,2.90
2008,03,28,08,25,2.90
2008,03,28,08,26,2.90
2008,03,28,08,27,2.90
2008,03,28,08,28,2.90
2008,03,28,08,29,2.90
2008,03,28,08,30,2.90
2008,03,28,08,31,2.90
2008,03,28,08,32,2.80
2008,03,28,08,33,2.80
2008,03,28,08,34,2.80
2008,03,28,08,35,2.80
2008,03,28,08,36,2.80
2008,03,28,08,37,2.80
2008,03,28,08,38,2.80
2008,03,28,08,39,2.80
2008,03,28,08,40,2.80
2008,03,28,08,41,2.80
2008,03,28,08,42,2.80
2008,03,28,08,43,2.80
2008,03,28,08,44,2.80
2008,03,28,08,45,2.80
2008,03,28,08,46,2.80
2008,03,28,08,47,2.80
2008,03,28,08,48,2.80
2008,03,28,08,49,2.80
2008,03,28,08,50,2.90
2008,03,28,08,51,2.90
2008,03,28,08,52,2.90
2008,03,28,08,53,2.90
2008,03,28,08,54,2.90
2008,03,28,08,55,2.90
2008,03,28,08,56,2.90
2008,03,28,08,57,2.90
2008,03,28,08,58,2.90
2008,03,28,08,59,2.90
2008,03,28,09,00,2.90
2008,03,28,09,01,2.90
2008,03,28,09,02,3.00
2008,03,28,09,03,3.00
2008,03,28,09,04,3.10
2008,03,28,09,05,3.10
2008,03,28,09,06,3.10
2008,03,28,09,07,3.10
2008,03,28,09,08,3.10
2008,03,28,09,09,3.10
2008,03,28,09,10,3.10
2008,03,28,09,11,3.10
2008,03,28,09,12,3.10
2008,03,28,09,13,3.10
2008,03,28,09,14,3.10
2008,03,28,09,15,3.10
2008,03,28,09,16,3.10
2008,03,28,09,17,3.10
2008,03,28,09,18,3.10
2008,03,28,09,19,3.20
2008,03,28,09,20,3.20
2008,03,28,09,21,3.20
2008,03,28,09,22,3.20
2008,03,28,09,23,3.20
2008,03,28,09,24,3.20
2008,03,28,09,25,3.20
2008,03,28,09,26,3.20
2008,03,28,09,27,3.20
2008,03,28,09,28,3.20
2008,03,28,09,29,3.20
2008,03,28,09,30,3.20
2008,03,28,09,31,3.10
2008,03,28,09,32,3.10
2008,03,28,09,33,3.10
2008,03,28,09,34,3.10
2008,03,28,09,35,3.10
2008,03,28,09,36,3.20
2008,03,28,09,37,3.20
2008,03,28,09,38,3.20
2008,03,28,09,39,3.20
2008,03,28,09,40,3.20
2008,03,28,09,41,3.20
2008,03,28,09,42,3.30
2008,03,28,09,43,3.30
2008,03,28,09,44,3.30
2008,03,28,09,45,3.30
2008,03,28,09,46,3.30
2008,03,28,09,47,3.30
2008,03,28,09,48,3.30
2008,03,28,09,49,3.30
2008,03,28,09,50,3.30
2008,03,28,09,51,3.30
2008,03,28,09,52,3.30
2008,03,28,09,53,3.30
2008,03,28,09,54,3.30
2008,03,28,09,55,3.40
2008,03,28,09,56,3.40
2008,03,28,09,57,3.40
2008,03,28,09,58,3.50
2008,03,28,09,59,3.50
2008,03,28,10,00,3.50
2008,03,28,10,01,3.50
2008,03,28,10,02,3.50
2008,03,28,10,03,3.50
2008,03,28,10,04,3.50
2008,03,28,10,05,3.60
2008,03,28,10,06,3.60
2008,03,28,10,07,3.60
2008,03,28,10,08,3.70
2008,03,28,10,09,3.70
2008,03,28,10,10,3.70
2008,03,28,10,11,3.70
2008,03,28,10,12,3.80
2008,03,28,10,13,3.70
2008,03,28,10,14,3.70
2008,03,28,10,15,3.70
2008,03,28,10,16,3.70
2008,03,28,10,17,3.80
2008,03,28,10,18,3.80
2008,03,28,10,19,3.80
2008,03,28,10,20,3.80
2008,03,28,10,21,3.80
2008,03,28,10,22,3.80
2008,03,28,10,23,3.80
2008,03,28,10,24,3.80
2008,03,28,10,25,3.80
2008,03,28,10,26,3.90
2008,03,28,10,27,3.90
2008,03,28,10,28,3.90
2008,03,28,10,29,3.90
2008,03,28,10,30,3.90
2008,03,28,10,31,3.90
2008,03,28,10,32,3.80
2008,03,28,10,33,3.80
2008,03,28,10,34,3.80
2008,03,28,10,35,3.80
2008,03,28,10,36,3.80
2008,03,28,10,37,3.90
2008,03,28,10,38,3.90
2008,03,28,10,39,3.90
2008,03,28,10,40,3.90
2008,03,28,10,41,4.00
2008,03,28,10,42,4.00
2008,03,28,10,43,4.00
2008,03,28,10,44,3.90
2008,03,28,10,45,3.90
2008,03,28,10,46,3.90
2008,03,28,10,47,3.90
2008,03,28,10,48,3.90
2008,03,28,10,49,3.90
2008,03,28,10,50,3.90
2008,03,28,10,51,3.90
2008,03,28,10,52,3.90
2008,03,28,10,53,4.00
2008,03,28,10,54,4.00
2008,03,28,10,55,4.00
2008,03,28,10,56,4.10
2008,03,28,10,57,4.10
2008,03,28,10,58,4.00
2008,03,28,10,59,4.00
2008,03,28,11,00,4.00
2008,03,28,11,01,4.00
2008,03,28,11,02,4.10
2008,03,28,11,03,4.20
2008,03,28,11,04,4.20
2008,03,28,11,05,4.20
2008,03,28,11,06,4.20
2008,03,28,11,07,4.20
2008,03,28,11,08,4.20
2008,03,28,11,09,4.20
2008,03,28,11,10,4.20
2008,03,28,11,11,4.20
2008,03,28,11,12,4.30
2008,03,28,11,13,4.30
2008,03,28,11,14,4.30
2008,03,28,11,15,4.30
2008,03,28,11,16,4.40
2008,03,28,11,17,4.40
2008,03,28,11,18,4.40
2008,03,28,11,19,4.40
2008,03,28,11,20,4.40
2008,03,28,11,21,4.50
2008,03,28,11,22,4.50
2008,03,28,11,23,4.50
2008,03,28,11,24,4.50
2008,03,28,11,25,4.50
2008,03,28,11,26,4.50
2008,03,28,11,27,4.60
2008,03,28,11,28,4.60
2008,03,28,11,29,4.60
2008,03,28,11,30,4.60
2008,03,28,11,31,4.60
2008,03,28,11,32,4.60
2008,03,28,11,33,4.60
2008,03,28,11,34,4.60
2008,03,28,11,35,4.60
2008,03,28,11,36,4.60
2008,03,28,11,37,4.60
2008,03,28,11,38,4.60
2008,03,28,11,39,4.60
2008,03,28,11,40,4.60
2008,03,28,11,41,4.60
2008,03,28,11,42,4.60
2008,03,28,11,43,4.70
2008,03,28,11,44,4.70
2008,03,28,11,45,4.70
2008,03,28,11,46,4.70
2008,03,28,11,47,4.70
2008,03,28,11,48,4.80
2008,03,28,11,49,4.70
2008,03,28,11,50,4.70
2008,03,28,11,51,4.70
2008,03,28,11,52,4.70
2008,03,28,11,53,4.80
2008,03,28,11,54,4.70
2008,03,28,11,55,4.70
2008,03,28,11,56,4.70
2008,03,28,11,57,4.70
2008,03,28,11,58,4.70
2008,03,28,11,59,4.70
2008,03,28,12,00,4.70
2008,03,28,12,01,4.70
2008,03,28,12,02,4.70
2008,03,28,12,03,4.70
2008,03,28,12,04,4.80
2008,03,28,12,05,4.80
2008,03,28,12,06,4.80
2008,03,28,12,07,4.90
2008,03,28,12,08,4.80
2008,03,28,12,09,4.80
2008,03,28,12,10,4.90
2008,03,28,12,11,4.90
2008,03,28,12,12,4.90
2008,03,28,12,13,4.90
2008,03,28,12,14,4.90
2008,03,28,12,15,5.00
2008,03,28,12,16,5.10
2008,03,28,12,17,5.10
2008,03,28,12,18,5.10
2008,03,28,12,19,5.10
2008,03,28,12,20,5.10
2008,03,28,12,21,5.10
2008,03,28,12,22,5.10
2008,03,28,12,23,5.10
2008,03,28,12,24,5.10
2008,03,28,12,25,5.10
2008,03,28,12,26,5.10
2008,03,28,12,27,5.10
2008,03,28,12,28,5.20
2008,03,28,12,29,5.20
2008,03,28,12,30,5.10
2008,03,28,12,31,5.10
2008,03,28,12,32,5.10
2008,03,28,12,33,5.10
2008,03,28,12,34,5.10
2008,03,28,12,35,5.10
2008,03,28,12,36,5.20
2008,03,28,12,37,5.10
2008,03,28,12,38,5.10
2008,03,28,12,39,5.10
2008,03,28,12,40,5.10
2008,03,28,12,41,5.00
2008,03,28,12,42,5.10
2008,03,28,12,43,5.10
2008,03,28,12,44,5.10
2008,03,28,12,45,5.10
2008,03,28,12,46,5.10
2008,03,28,12,47,5.20
2008,03,28,12,48,5.20
2008,03,28,12,49,5.20
2008,03,28,12,50,5.20
2008,03,28,12,51,5.20
2008,03,28,12,52,5.10
2008,03,28,12,53,5.10
2008,03,28,12,54,5.00
2008,03,28,12,55,5.00
2008,03,28,12,56,4.90
2008,03,28,12,57,4.90
2008,03,28,12,58,4.90
2008,03,28,12,59,4.90
2008,03,28,13,00,4.90
2008,03,28,13,01,4.80
2008,03,28,13,02,4.80
2008,03,28,13,03,4.80
2008,03,28,13,04,4.80
2008,03,28,13,05,4.80
2008,03,28,13,06,4.90
2008,03,28,13,07,4.90
2008,03,28,13,08,4.90
2008,03,28,13,09,4.90
2008,03,28,13,10,4.80
2008,03,28,13,11,4.80
2008,03,28,13,12,4.80
2008,03,28,13,13,4.70
2008,03,28,13,14,4.70
2008,03,28,13,15,4.70
2008,03,28,13,16,4.70
2008,03,28,13,17,4.70
2008,03,28,13,18,4.70
2008,03,28,13,19,4.70
2008,03,28,13,20,4.70
2008,03,28,13,21,4.80
2008,03,28,13,22,4.80
2008,03,28,13,23,4.80
2008,03,28,13,24,4.70
2008,03,28,13,25,4.70
2008,03,28,13,26,4.80
2008,03,28,13,27,4.80
2008,03,28,13,28,4.80
2008,03,28,13,29,4.70
2008,03,28,13,30,4.70
2008,03,28,13,31,4.70
2008,03,28,13,32,4.70
2008,03,28,13,33,4.70
2008,03,28,13,34,4.60
2008,03,28,13,35,4.60
2008,03,28,13,36,4.60
2008,03,28,13,37,4.60
2008,03,28,13,38,4.60
2008,03,28,13,39,4.60
2008,03,28,13,40,4.60
2008,03,28,13,41,4.60
2008,03,28,13,42,4.60
2008,03,28,13,43,4.60
2008,03,28,13,44,4.60
2008,03,28,13,45,4.60
2008,03,28,13,46,4.60
2008,03,28,13,47,4.60
2008,03,28,13,48,4.60
2008,03,28,13,49,4.60
2008,03,28,13,50,4.60
2008,03,28,13,51,4.50
2008,03,28,13,52,4.50
2008,03,28,13,53,4.50
2008,03,28,13,54,4.50
2008,03,28,13,55,4.50
2008,03,28,13,56,4.40
2008,03,28,13,57,4.40
2008,03,28,13,58,4.40
2008,03,28,13,59,4.40
2008,03,28,14,00,4.30
2008,03,28,14,01,4.30
2008,03,28,14,02,4.30
2008,03,28,14,03,4.30
2008,03,28,14,04,4.40
2008,03,28,14,05,4.30
2008,03,28,14,06,4.30
2008,03,28,14,07,4.40
2008,03,28,14,08,4.40
2008,03,28,14,09,4.40
2008,03,28,14,10,4.40
2008,03,28,14,11,4.40
2008,03,28,14,12,4.30
2008,03,28,14,13,4.30
2008,03,28,14,14,4.30
2008,03,28,14,15,4.20
2008,03,28,14,16,4.20
2008,03,28,14,17,4.20
2008,03,28,14,18,4.20
2008,03,28,14,19,4.10
2008,03,28,14,20,4.10
2008,03,28,14,21,4.10
2008,03,28,14,22,4.00
2008,03,28,14,23,4.00
2008,03,28,14,24,4.00
2008,03,28,14,25,4.00
2008,03,28,14,26,4.00
2008,03,28,14,27,4.00
2008,03,28,14,28,4.00
2008,03,28,14,29,4.10
2008,03,28,14,30,4.10
2008,03,28,14,31,4.10
2008,03,28,14,32,4.20
2008,03,28,14,33,4.20
2008,03,28,14,34,4.20
2008,03,28,14,35,4.20
2008,03,28,14,36,4.20
2008,03,28,14,37,4.10
2008,03,28,14,38,4.10
2008,03,28,14,39,4.00
2008,03,28,14,40,4.00
2008,03,28,14,41,3.90
2008,03,28,14,42,3.90
2008,03,28,14,43,3.90
2008,03,28,14,44,3.80
2008,03,28,14,45,3.80
2008,03,28,14,46,3.80
2008,03,28,14,47,3.80
2008,03,28,14,48,3.80
2008,03,28,14,49,3.80
2008,03,28,14,50,3.80
2008,03,28,14,51,3.80
2008,03,28,14,52,3.70
2008,03,28,14,53,3.70
2008,03,28,14,54,3.70
2008,03,28,14,55,3.70
2008,03,28,14,56,3.70
2008,03,28,14,57,3.70
2008,03,28,14,58,3.70
2008,03,28,14,59,3.70
2008,03,28,15,00,3.70
2008,03,28,15,01,3.60
2008,03,28,15,02,3.60
2008,03,28,15,03,3.60
2008,03,28,15,04,3.60
2008,03,28,15,05,3.50
2008,03,28,15,06,3.50
2008,03,28,15,07,3.50
2008,03,28,15,08,3.40
2008,03,28,15,09,3.30
2008,03,28,15,10,3.30
2008,03,28,15,11,3.30
2008,03,28,15,12,3.30
2008,03,28,15,13,3.20
2008,03,28,15,14,3.20
2008,03,28,15,15,3.10
2008,03,28,15,16,3.10
2008,03,28,15,17,3.10
2008,03,28,15,18,3.10
2008,03,28,15,19,3.10
2008,03,28,15,20,3.10
2008,03,28,15,21,3.10
2008,03,28,15,22,3.10
2008,03,28,15,23,3.10
2008,03,28,15,24,3.10
2008,03,28,15,25,3.00
2008,03,28,15,26,2.90
2008,03,28,15,27,2.80
2008,03,28,15,28,2.70
2008,03,28,15,29,2.60
2008,03,28,15,30,2.50
2008,03,28,15,31,2.40
2008,03,28,15,32,2.30
2008,03,28,15,33,2.30
2008,03,28,15,34,2.20
2008,03,28,15,35,2.20
2008,03,28,15,36,2.10
2008,03,28,15,37,2.00
2008,03,28,15,38,2.00
2008,03,28,15,39,2.00
2008,03,28,15,40,1.90
2008,03,28,15,41,1.90
2008,03,28,15,42,1.90
2008,03,28,15,43,1.90
2008,03,28,15,44,1.90
2008,03,28,15,45,1.90
2008,03,28,15,46,1.90
2008,03,28,15,47,1.90
2008,03,28,15,48,1.90
2008,03,28,15,49,1.90
2008,03,28,15,50,1.90
2008,03,28,15,51,1.90
2008,03,28,15,52,2.00
2008,03,28,15,53,2.00
2008,03,28,15,54,2.00
2008,03,28,15,55,2.00
2008,03,28,15,56,2.00
2008,03,28,15,57,2.00
2008,03,28,15,58,2.10
2008,03,28,15,59,2.10
2008,03,28,16,00,2.10
2008,03,28,16,01,2.10
2008,03,28,16,02,2.20
2008,03,28,16,03,2.20
2008,03,28,16,04,2.20
2008,03,28,16,05,2.20
2008,03,28,16,06,2.20
2008,03,28,16,07,2.20
2008,03,28,16,08,2.20
2008,03,28,16,09,2.20
2008,03,28,16,10,2.30
2008,03,28,16,11,2.30
2008,03,28,16,12,2.30
2008,03,28,16,13,2.40
2008,03,28,16,14,2.40
2008,03,28,16,15,2.50
2008,03,28,16,16,2.60
2008,03,28,16,17,2.60
2008,03,28,16,18,2.70
2008,03,28,16,19,2.70
2008,03,28,16,20,2.70
2008,03,28,16,21,2.70
2008,03,28,16,22,2.70
2008,03,28,16,23,2.70
2008,03,28,16,24,2.70
2008,03,28,16,25,2.70
2008,03,28,16,26,2.70
2008,03,28,16,27,2.70
2008,03,28,16,28,2.70
2008,03,28,16,29,2.70
2008,03,28,16,30,2.60
2008,03,28,16,31,2.60
2008,03,28,16,32,2.60
2008,03,28,16,33,2.60
2008,03,28,16,34,2.60
2008,03,28,16,35,2.60
2008,03,28,16,36,2.50
2008,03,28,16,37,2.50
2008,03,28,16,38,2.50
2008,03,28,16,39,2.50
2008,03,28,16,40,2.50
2008,03,28,16,41,2.50
2008,03,28,16,42,2.60
2008,03,28,16,43,2.60
2008,03,28,16,44,2.60
2008,03,28,16,45,2.60
2008,03,28,16,46,2.50
2008,03,28,16,47,2.50
2008,03,28,16,48,2.50
2008,03,28,16,49,2.50
2008,03,28,16,50,2.50
2008,03,28,16,51,2.50
2008,03,28,16,52,2.50
2008,03,28,16,53,2.50
2008,03,28,16,54,2.50
2008,03,28,16,55,2.50
2008,03,28,16,56,2.50
2008,03,28,16,57,2.50
2008,03,28,16,58,2.50
2008,03,28,16,59,2.50
2008,03,28,17,00,2.50
2008,03,28,17,01,2.40
2008,03,28,17,02,2.40
2008,03,28,17,03,2.30
2008,03,28,17,04,2.30
2008,03,28,17,05,2.20
2008,03,28,17,06,2.20
2008,03,28,17,07,2.20
2008,03,28,17,08,2.20
2008,03,28,17,09,2.20
2008,03,28,17,10,2.20
2008,03,28,17,11,2.20
2008,03,28,17,12,2.20
2008,03,28,17,13,2.20
2008,03,28,17,14,2.20
2008,03,28,17,15,2.20
2008,03,28,17,16,2.20
2008,03,28,17,17,2.10
2008,03,28,17,18,2.10
2008,03,28,17,19,2.10
2008,03,28,17,20,2.10
2008,03,28,17,21,2.10
2008,03,28,17,22,2.10
2008,03,28,17,23,2.10
2008,03,28,17,24,2.10
2008,03,28,17,25,2.10
2008,03,28,17,26,2.10
2008,03,28,17,27,2.10
2008,03,28,17,28,2.10
2008,03,28,17,29,2.10
2008,03,28,17,30,2.10
2008,03,28,17,31,2.10
2008,03,28,17,32,2.10
2008,03,28,17,33,2.10
2008,03,28,17,34,2.10
2008,03,28,17,35,2.20
2008,03,28,17,36,2.20
2008,03,28,17,37,2.20
2008,03,28,17,38,2.20
2008,03,28,17,39,2.20
2008,03,28,17,40,2.20
2008,03,28,17,41,2.20
2008,03,28,17,42,2.30
2008,03,28,17,43,2.30
2008,03,28,17,44,2.40
2008,03,28,17,45,2.40
2008,03,28,17,46,2.40
2008,03,28,17,47,2.40
2008,03,28,17,48,2.40
2008,03,28,17,49,2.40
2008,03,28,17,50,2.30
2008,03,28,17,51,2.30
2008,03,28,17,52,2.30
2008,03,28,17,53,2.20
2008,03,28,17,54,2.20
2008,03,28,17,55,2.20
2008,03,28,17,56,2.20
2008,03,28,17,57,2.20
2008,03,28,17,58,2.20
2008,03,28,17,59,2.20
2008,03,28,18,00,2.20
2008,03,28,18,01,2.20
2008,03,28,18,02,2.10
2008,03,28,18,03,2.10
2008,03,28,18,04,2.00
2008,03,28,18,05,2.00
2008,03,28,18,06,2.00